Regional Weather Roundup
Issued by NWS

Home | Current Version | Previous Version | Graphics & Text | Print | Product List | Glossary On
Versions: 1 2 3 4 5 6 7 8 9 10 11 12 13 14 15 16 17 18 19 20 21 22 23 24 25 26 27 28 29 30 31 32 33 34 35 36 37 38 39 40 41 42 43 44 45 46 47 48 49 50
000
ASUS43 KFSD 290302
RWRSD

WEATHER ROUNDUP FOR SOUTH DAKOTA
NATIONAL WEATHER SERVICE SIOUX FALLS SD
1000 PM CDT FRI AUG 28 2015

NOTE: "FAIR" INDICATES FEW OR NO CLOUDS BELOW 12,000 FEET WITH NO
SIGNIFICANT WEATHER AND/OR OBSTRUCTIONS TO VISIBILITY.


SDZ001>005-009-010-012>017-290400-
NORTHWEST AND NORTH CENTRAL SOUTH DAKOTA

CITY           SKY/WX    TMP DP  RH WIND       PRES   REMARKS
BUFFALO          N/A     70  52  52 W6        29.98R
FAITH            N/A     70  60  70 S7        30.00R
MOBRIDGE       PTCLDY    71  68  90 SE8       29.94R
$$

SDZ012>016-024>037-041>051-057-063-072>074-290400-
SOUTHWEST AND SOUTH CENTRAL SOUTH DAKOTA

CITY           SKY/WX    TMP DP  RH WIND       PRES   REMARKS
RAPID CTY ARPT CLEAR     66  59  78 CALM      30.07R
PIERRE         CLEAR     71  66  84 S8        29.98R
CUSTER         CLEAR     62  50  64 N3        30.24R
ELLSWORTH AFB  CLEAR     72  59  62 SW3       30.06R
PHILIP         CLEAR     71  63  75 CALM      30.01R
PINE RIDGE     CLEAR     63  53  70 CALM      30.09R
WINNER         FAIR      68  63  84 S5        30.03R
$$

SDZ004>011-016>023-039-040-290400-
NORTHEAST SOUTH DAKOTA

CITY           SKY/WX    TMP DP  RH WIND       PRES   REMARKS
ABERDEEN       CLEAR     68  65  90 S6        29.97R
WATERTOWN      CLEAR     64  60  87 S7        30.01R
BROOKINGS      CLEAR     61  57  88 SE3       30.05R
$$

SDZ017-020-022-023-036>040-048>070-290400-
SOUTHEAST SOUTH DAKOTA

CITY           SKY/WX    TMP DP  RH WIND       PRES   REMARKS
SIOUX FALLS    PTCLDY    61  57  87 E7        30.02R
HURON          CLEAR     68  64  87 SE6       30.00R
CHAMBERLAIN    CLEAR     65  65  97 CALM      30.02R
MITCHELL       PTCLDY    66  64  93 SE6       30.02R
YANKTON        CLEAR     63  59  88 NE6       30.01R
$$

ABBREVIATIONS USED IN REMARKS
   TC - TEMPERATURE IN CELSIUS
  WCI - WIND CHILL INDEX
   HX - HEAT INDEX
  VSB - VISIBILITY




USA.gov is the U.S. government's official web portal to all federal, state and local government web resources and services.